Temp
63 63 62 62 62 63 63 62 63 62 62 62 62 63 61 62 62 61 61 61 61 60 59 58 57 55 54 53 53 53 52 52 52 51 50 50 49 49 48 49 49 48
61 62 61 61 61 61 62 62 62 61 61 62 62 63 62 61 61 60 60 59 60 59 60 58 56 54 53 53 53 52 52 52 51 51 50 49 49 50 49 50 49 50
58 59 60 59 59 60 60 60 60 60 61 61 61 61 60 60 59 59 59 59 59 59 59 58 57 55 53 52 52 52 51 51 50 50 50 49 49 49 49 50 50 48
58 60 60 59 59 59 59 58 58 58 59 58 58 59 59 57 58 58 58 56 58 58 59 58 57 56 54 51 51 50 50 50 50 50 49 49 49 49 49 49 48 47
58 58 58 58 59 59 59 59 58 58 59 59 59 58 57 57 57 57 57 57 57 57 58 57 57 56 55 52 50 48 49 48 49 48 48 47 47 47 47 46 45 46
57 57 58 57 58 58 58 57 57 58 58 57 58 58 57 57 57 57 57 56 56 56 56 57 57 56 55 52 50 49 49 47 47 47 46 45 47 48 47 46 46 44
55 55 55 56 56 56 56 57 57 57 57 57 57 56 56 56 56 56 56 56 56 56 55 55 55 55 55 53 50 48 48 47 46 44 44 44 44 44 45 45 45 44
55 55 55 55 54 55 55 55 55 56 56 56 55 57 57 55 55 55 55 56 55 55 55 55 55 55 55 53 50 48 46 46 45 43 43 43 43 43 44 44 43 43
55 54 53 53 53 54 54 54 54 54 55 54 54 56 56 54 55 56 55 55 54 54 55 54 54 54 54 54 52 49 47 46 45 43 43 42 42 42 43 44 42 42
52 53 52 52 52 53 53 53 54 54 55 54 53 55 54 53 53 54 54 53 52 52 52 53 52 52 52 52 52 50 49 47 46 44 43 43 43 43 43 43 42 41
51 51 50 50 51 52 52 52 52 52 53 52 52 51 51 52 50 51 51 52 51 51 52 51 51 51 51 51 51 51 50 49 48 46 44 43 43 43 41 43 42 42
49 49 49 50 50 50 50 50 50 50 50 50 51 50 50 49 48 49 49 50 51 51 52 52 52 51 51 50 50 50 50 49 48 47 46 45 44 43 43 43 42 42
49 49 49 49 49 50 50 49 48 48 48 48 49 48 48 48 48 48 49 49 50 51 51 52 51 51 51 50 50 50 49 49 48 47 46 46 46 45 44 43 43 43
50 49 49 49 49 48 47 47 47 47 47 47 47 47 47 47 48 48 49 49 49 50 51 51 50 50 50 50 50 50 50 49 48 47 46 46 46 46 45 45 44 44
48 48 47 47 46 46 46 46 46 46 46 46 46 47 47 47 48 47 47 47 48 48 49 49 48 48 49 49 49 49 50 49 49 48 48 47 47 46 46 45 45 44
47 46 46 46 46 46 46 46 46 45 45 45 44 46 46 47 47 47 46 46 46 48 48 47 47 48 43 41 43 48 49 49 49 48 48 47 46 46 46 46 46 46
47 47 46 45 46 45 45 44 44 44 44 44 45 44 44 44 44 45 45 46 46 46 47 47 47 47 41 42 42 41 44 47 48 48 49 48 47 46 45 46 47 48
47 46 45 44 43 43 43 43 43 42 42 43 43 42 43 44 44 44 45 46 46 46 46 46 47 41 42 42 41 41 41 44 46 46 47 48 48 48 48 47 47 47
45 44 44 43 43 41 39 38 38 39 39 39 40 43 44 43 44 44 45 45 45 45 45 46 46 42 42 41 41 41 41 41 45 45 46 46 47 47 48 48 49 48
43 41 41 43 41 39 39 38 38 38 41 43 40 41 43 42 43 42 43 44 44 45 45 45 46 42 41 40 40 40 40 41 44 45 45 46 46 47 47 47 47 47
43 43 43 40 39 38 37 38 38 38 38 38 39 40 39 39 41 40 43 42 43 43 44 44 44 40 40 40 40 40 40 40 44 44 44 45 46 47 47 47 47 46
43 43 40 39 39 38 38 38 39 38 38 39 40 41 40 40 40 40 38 38 40 42 42 42 43 40 39 39 39 40 40 40 42 43 43 44 45 45 45 46 46 46
43 41 39 38 38 37 36 38 37 37 39 40 38 39 40 40 39 39 39 39 38 39 40 41 42 41 39 39 39 39 39 40 40 40 41 42 43 44 44 45 45 45
41 38 37 36 36 35 36 37 38 38 38 38 39 39 39 39 40 39 39 38 37 37 39 38 39 40 38 39 38 39 38 38 39 40 39 39 40 43 43 44 44 38
40 37 36 35 35 35 36 35 36 37 38 37 38 38 38 39 39 39 39 38 38 37 35 36 37 37 38 38 38 38 39 38 39 40 38 39 40 40 43 43 44 41
36 34 34 34 34 34 35 36 36 37 36 37 37 38 39 40 39 38 36 37 37 37 37 37 37 38 37 38 38 38 38 38 39 39 38 37 38 39 39 40 41 41
MSLP
1019.19 1019.33 1019.51 1019.55 1019.63 1019.71 1019.87 1020.09 1020.21 1020.35 1020.39 1020.47 1020.53 1020.59 1020.75 1020.81 1021.03 1021.21 1021.31 1021.45 1021.53 1021.61 1021.73 1021.89 1022.11 1022.29 1022.41 1022.45 1022.53 1022.63 1022.61 1022.67 1022.77 1022.97 1023.29 1023.51 1023.61 1023.85 1024.03 1024.11 1024.15 1024.23
1019.23 1019.27 1019.47 1019.61 1019.61 1019.75 1019.87 1019.97 1020.11 1020.23 1020.29 1020.35 1020.35 1020.39 1020.47 1020.67 1020.83 1021.01 1021.13 1021.21 1021.29 1021.35 1021.41 1021.59 1021.85 1022.03 1022.13 1022.15 1022.17 1022.29 1022.35 1022.43 1022.55 1022.75 1023.09 1023.19 1023.25 1023.37 1023.35 1023.53 1023.71 1023.77
1019.25 1019.31 1019.35 1019.49 1019.59 1019.59 1019.79 1019.97 1020.11 1020.19 1020.21 1020.23 1020.33 1020.41 1020.45 1020.61 1020.71 1020.81 1020.91 1020.97 1020.99 1021.05 1021.17 1021.31 1021.51 1021.69 1021.87 1021.89 1021.93 1022.01 1022.07 1022.11 1022.21 1022.45 1022.67 1022.73 1022.87 1023.05 1023.03 1023.17 1023.15 1023.33
1019.05 1018.99 1019.09 1019.17 1019.33 1019.49 1019.69 1019.93 1020.07 1020.19 1020.29 1020.35 1020.35 1020.35 1020.43 1020.53 1020.59 1020.61 1020.67 1020.79 1020.79 1020.77 1020.83 1020.95 1021.11 1021.31 1021.47 1021.63 1021.69 1021.77 1021.85 1021.95 1021.99 1022.27 1022.39 1022.39 1022.47 1022.61 1022.65 1022.79 1022.91 1023.11
1018.75 1018.87 1018.97 1018.97 1019.03 1019.17 1019.29 1019.49 1019.71 1019.81 1019.87 1019.95 1020.07 1020.27 1020.27 1020.31 1020.37 1020.35 1020.37 1020.43 1020.49 1020.53 1020.55 1020.63 1020.77 1020.93 1021.05 1021.29 1021.45 1021.55 1021.63 1021.77 1021.87 1022.07 1022.17 1022.19 1022.23 1022.47 1022.43 1022.67 1022.81 1022.93
1018.63 1018.69 1018.77 1018.87 1018.93 1019.03 1019.17 1019.29 1019.39 1019.47 1019.57 1019.71 1019.69 1019.85 1019.97 1020.01 1020.07 1020.09 1020.13 1020.19 1020.21 1020.29 1020.35 1020.37 1020.45 1020.57 1020.73 1020.91 1021.11 1021.19 1021.35 1021.49 1021.65 1021.89 1021.97 1021.97 1021.93 1022.03 1022.15 1022.29 1022.39 1022.47
1018.47 1018.59 1018.73 1018.81 1018.97 1019.07 1019.13 1019.13 1019.19 1019.31 1019.39 1019.43 1019.61 1019.79 1019.87 1019.93 1019.91 1019.93 1019.97 1019.99 1020.01 1020.07 1020.13 1020.21 1020.23 1020.31 1020.43 1020.63 1020.79 1020.85 1021.03 1021.17 1021.37 1021.59 1021.69 1021.67 1021.81 1021.79 1021.81 1021.99 1022.11 1022.17
1018.25 1018.37 1018.57 1018.73 1018.91 1018.99 1019.05 1019.09 1019.13 1019.11 1019.27 1019.43 1019.49 1019.47 1019.61 1019.73 1019.79 1019.81 1019.85 1019.81 1019.83 1019.81 1019.89 1019.95 1019.99 1019.97 1020.03 1020.27 1020.51 1020.65 1020.77 1020.93 1021.05 1021.27 1021.39 1021.45 1021.57 1021.51 1021.53 1021.69 1021.83 1021.83
1018.19 1018.35 1018.49 1018.69 1018.83 1018.83 1018.85 1018.87 1018.95 1019.07 1019.17 1019.37 1019.43 1019.35 1019.49 1019.69 1019.63 1019.53 1019.65 1019.71 1019.69 1019.69 1019.67 1019.71 1019.73 1019.77 1019.77 1019.85 1020.07 1020.31 1020.47 1020.61 1020.69 1020.85 1020.99 1021.09 1021.19 1021.15 1021.23 1021.27 1021.41 1021.39
1018.21 1018.29 1018.47 1018.57 1018.63 1018.57 1018.61 1018.69 1018.83 1018.93 1019.07 1019.25 1019.35 1019.29 1019.39 1019.49 1019.53 1019.47 1019.55 1019.59 1019.57 1019.55 1019.55 1019.49 1019.51 1019.51 1019.55 1019.63 1019.75 1019.93 1020.09 1020.19 1020.35 1020.49 1020.59 1020.65 1020.71 1020.75 1020.79 1020.87 1020.83 1020.91
1018.09 1018.21 1018.35 1018.41 1018.41 1018.37 1018.51 1018.65 1018.81 1018.91 1018.97 1019.19 1019.27 1019.35 1019.35 1019.37 1019.49 1019.57 1019.51 1019.43 1019.41 1019.31 1019.27 1019.25 1019.23 1019.25 1019.31 1019.37 1019.47 1019.57 1019.71 1019.77 1019.87 1020.01 1020.13 1020.21 1020.23 1020.21 1020.25 1020.29 1020.27 1020.21
1018.01 1018.11 1018.17 1018.19 1018.27 1018.35 1018.49 1018.65 1018.79 1018.93 1019.03 1019.11 1019.19 1019.21 1019.19 1019.35 1019.43 1019.41 1019.39 1019.33 1019.17 1019.07 1018.95 1018.85 1018.83 1018.89 1019.01 1019.07 1019.13 1019.27 1019.41 1019.51 1019.53 1019.57 1019.63 1019.69 1019.75 1019.77 1019.77 1019.77 1019.75 1019.61
1017.75 1017.81 1017.91 1018.03 1018.13 1018.23 1018.39 1018.61 1018.77 1018.87 1018.97 1019.01 1019.03 1019.23 1019.25 1019.19 1019.21 1019.27 1019.19 1019.13 1018.93 1018.81 1018.69 1018.59 1018.59 1018.61 1018.69 1018.75 1018.81 1018.93 1019.07 1019.17 1019.23 1019.27 1019.27 1019.31 1019.29 1019.31 1019.33 1019.33 1019.25 1019.17
1017.47 1017.57 1017.77 1017.91 1018.05 1018.29 1018.47 1018.59 1018.71 1018.79 1018.87 1018.93 1019.03 1019.09 1019.09 1019.05 1019.01 1019.01 1018.93 1018.91 1018.77 1018.67 1018.55 1018.53 1018.47 1018.41 1018.39 1018.43 1018.49 1018.57 1018.69 1018.75 1018.87 1018.93 1018.93 1018.93 1018.87 1018.87 1018.89 1018.81 1018.69 1018.61
1017.37 1017.65 1017.85 1018.03 1018.25 1018.39 1018.49 1018.55 1018.59 1018.67 1018.77 1018.85 1018.91 1018.91 1018.91 1018.87 1018.83 1018.83 1018.85 1018.77 1018.67 1018.61 1018.55 1018.47 1018.35 1018.21 1018.15 1018.17 1018.23 1018.31 1018.41 1018.43 1018.47 1018.51 1018.53 1018.37 1018.29 1018.27 1018.23 1018.21 1018.15 1018.03
1017.47 1017.79 1017.95 1018.05 1018.23 1018.31 1018.33 1018.41 1018.49 1018.59 1018.69 1018.79 1018.79 1018.77 1018.73 1018.69 1018.67 1018.71 1018.73 1018.67 1018.57 1018.43 1018.33 1018.27 1018.17 1017.97 1017.91 1018.07 1018.19 1018.17 1018.15 1018.21 1018.19 1018.15 1018.11 1018.05 1017.99 1017.83 1017.63 1017.49 1017.37 1017.37
1017.57 1017.69 1017.89 1018.05 1018.09 1018.19 1018.27 1018.41 1018.51 1018.57 1018.63 1018.61 1018.63 1018.63 1018.63 1018.63 1018.67 1018.59 1018.55 1018.47 1018.43 1018.35 1018.15 1017.91 1017.75 1017.63 1017.83 1017.91 1018.07 1018.29 1018.39 1018.21 1018.03 1017.79 1017.67 1017.63 1017.61 1017.51 1017.31 1017.09 1016.87 1016.73
1017.53 1017.75 1017.93 1018.01 1018.15 1018.25 1018.37 1018.43 1018.49 1018.55 1018.53 1018.49 1018.49 1018.47 1018.43 1018.41 1018.41 1018.33 1018.27 1018.23 1018.19 1018.09 1017.93 1017.69 1017.49 1017.41 1017.61 1017.67 1017.85 1018.03 1018.23 1018.19 1017.91 1017.67 1017.45 1017.27 1017.03 1016.89 1016.65 1016.55 1016.41 1016.31
1017.75 1017.87 1017.99 1018.07 1018.17 1018.29 1018.39 1018.47 1018.49 1018.41 1018.37 1018.37 1018.33 1018.19 1018.17 1018.19 1018.09 1018.09 1018.05 1018.01 1017.99 1017.85 1017.63 1017.37 1017.23 1017.21 1017.39 1017.43 1017.57 1017.75 1017.89 1018.01 1017.71 1017.45 1017.23 1016.91 1016.69 1016.47 1016.25 1016.01 1015.87 1015.81
1017.97 1018.05 1017.97 1018.03 1018.17 1018.29 1018.31 1018.27 1018.23 1018.01 1017.99 1017.97 1018.01 1018.07 1018.03 1017.99 1017.95 1017.97 1017.91 1017.87 1017.79 1017.65 1017.41 1017.13 1016.97 1016.95 1017.15 1017.19 1017.31 1017.43 1017.53 1017.65 1017.37 1017.11 1016.83 1016.51 1016.27 1016.09 1015.91 1015.75 1015.67 1015.49
1018.09 1018.01 1017.81 1017.89 1018.05 1018.17 1018.11 1017.99 1017.89 1017.89 1017.85 1017.87 1017.79 1017.81 1017.85 1017.83 1017.79 1017.81 1017.75 1017.79 1017.71 1017.59 1017.37 1016.99 1016.69 1016.83 1016.97 1016.99 1017.01 1017.09 1017.17 1017.27 1016.97 1016.73 1016.43 1016.09 1015.81 1015.63 1015.51 1015.37 1015.23 1015.13
1018.01 1017.89 1017.83 1017.85 1017.87 1017.85 1017.69 1017.53 1017.63 1017.69 1017.63 1017.67 1017.67 1017.65 1017.63 1017.67 1017.67 1017.67 1017.69 1017.71 1017.61 1017.53 1017.35 1016.89 1016.41 1016.55 1016.65 1016.69 1016.67 1016.69 1016.79 1016.81 1016.55 1016.33 1016.03 1015.69 1015.37 1015.17 1015.13 1014.95 1014.81 1014.69
1018.13 1018.11 1017.97 1017.93 1017.99 1017.83 1017.69 1017.73 1017.73 1017.77 1017.77 1017.59 1017.65 1017.61 1017.49 1017.47 1017.43 1017.33 1017.21 1017.19 1017.23 1017.27 1017.17 1016.73 1016.23 1016.13 1016.29 1016.35 1016.37 1016.37 1016.47 1016.29 1016.11 1015.93 1015.63 1015.33 1014.93 1014.75 1014.67 1014.47 1014.31 1014.17
1018.39 1018.43 1018.29 1018.17 1018.11 1017.97 1018.03 1018.09 1018.01 1017.85 1017.73 1017.65 1017.63 1017.49 1017.35 1017.21 1017.07 1016.97 1016.91 1016.89 1016.89 1016.89 1016.81 1016.57 1016.05 1015.83 1016.03 1016.07 1016.13 1016.13 1016.17 1016.07 1015.85 1015.59 1015.27 1015.03 1014.57 1014.29 1014.19 1013.99 1013.69 1013.71
1018.65 1018.69 1018.63 1018.51 1018.39 1018.33 1018.31 1018.29 1018.17 1017.95 1017.83 1017.81 1017.71 1017.55 1017.39 1017.17 1017.05 1016.91 1016.77 1016.61 1016.49 1016.47 1016.45 1016.45 1016.01 1015.75 1015.83 1015.83 1015.85 1015.87 1015.93 1015.83 1015.63 1015.33 1014.93 1014.55 1014.27 1013.93 1013.71 1013.47 1013.19 1013.13
1018.91 1018.95 1018.83 1018.69 1018.53 1018.43 1018.37 1018.29 1018.11 1018.01 1017.91 1017.89 1017.77 1017.51 1017.17 1016.99 1016.95 1016.79 1016.73 1016.51 1016.29 1016.21 1016.11 1016.05 1015.89 1015.55 1015.55 1015.53 1015.51 1015.53 1015.57 1015.59 1015.33 1015.17 1014.71 1014.29 1014.07 1013.83 1013.47 1013.13 1012.95 1012.67
Wind_Speed
11 10 9 6 7 7 7 7 7 7 7 7 7 7 7 7 7 8 8 8 9 9 8 7 10 10 10 10 10 8 8 10 8 7 10 10 9 11 10 11 10 10
11 11 7 5 5 5 6 6 7 7 7 7 7 6 6 6 6 7 7 8 8 9 8 8 10 10 11 10 11 13 11 9 9 7 9 13 12 11 12 14 14 12
10 10 11 11 7 8 7 6 6 6 6 6 6 5 5 5 6 7 7 8 8 9 9 9 10 10 10 10 10 11 11 9 10 9 9 11 11 10 11 12 11 13
11 11 10 10 8 7 6 5 5 5 5 5 6 6 5 5 6 7 8 9 9 9 9 9 11 10 11 10 9 9 9 11 8 8 10 9 10 11 11 9 10 9
10 9 8 8 7 7 7 9 10 9 9 9 8 7 7 7 8 8 8 9 9 9 9 10 11 11 11 10 9 9 8 8 8 8 9 10 9 9 10 9 10 12
7 7 7 7 6 7 7 8 8 9 9 9 9 7 7 8 8 8 9 9 8 9 9 10 11 11 11 11 9 8 8 8 7 9 10 11 11 10 8 9 11 12
7 7 7 6 6 7 7 7 7 6 6 6 5 7 7 7 8 9 9 9 9 9 9 9 9 12 10 10 10 9 8 8 7 8 10 10 9 10 10 9 10 11
7 5 5 5 6 7 8 7 6 7 7 7 8 9 10 10 10 8 8 9 9 9 9 9 9 11 12 10 10 10 8 7 8 8 9 10 9 10 10 8 9 12
6 6 5 6 7 7 8 7 7 6 6 8 9 9 9 9 10 10 11 9 8 9 9 9 9 10 9 11 11 11 10 9 9 8 10 10 10 11 10 10 10 11
6 6 6 7 7 7 8 7 6 6 6 9 9 9 9 8 9 10 10 10 10 8 8 9 9 9 9 9 12 12 12 12 10 9 9 10 10 10 10 10 11 11
6 6 6 7 7 6 7 6 6 6 6 8 8 8 9 8 8 8 10 10 10 11 10 10 10 10 9 9 9 11 12 11 11 10 10 10 11 11 11 11 11 13
6 6 7 7 6 6 6 6 5 5 5 6 8 9 9 8 8 8 8 9 10 11 12 11 9 9 9 9 9 9 10 11 11 11 11 11 11 11 11 11 12 13
6 6 5 5 5 5 4 4 4 4 5 6 6 8 8 8 8 8 8 9 10 10 11 12 10 8 9 9 9 9 10 13 12 12 12 12 11 11 11 11 12 12
4 4 3 3 3 2 3 4 4 4 5 4 5 8 8 8 8 8 8 9 9 10 11 10 9 10 9 9 9 10 11 12 12 12 12 11 11 11 11 12 13 13
2 1 1 2 2 3 4 4 4 4 4 4 5 7 7 7 7 8 8 9 9 9 10 10 10 8 7 7 8 9 11 13 13 13 13 12 13 13 13 13 13 12
1 1 2 3 3 4 4 3 3 3 4 5 5 6 6 6 7 7 7 8 9 9 9 9 9 9 8 10 9 10 10 10 11 13 14 13 13 14 15 14 12 13
1 2 2 2 2 2 2 2 3 3 4 5 5 5 5 5 6 7 7 7 8 9 9 9 8 8 9 10 11 13 10 10 11 12 13 14 14 14 15 15 15 15
0 0 1 1 1 2 3 3 3 4 4 4 4 4 4 4 5 5 5 6 6 8 8 8 8 7 10 11 11 12 11 10 10 11 11 14 14 15 14 14 15 14
0 1 2 2 2 2 1 1 2 2 2 2 3 4 3 4 5 5 5 6 6 8 8 8 8 7 9 11 11 12 13 12 10 11 12 13 13 14 16 15 15 13
2 1 2 3 2 2 2 2 2 2 2 2 1 2 4 4 5 6 6 6 7 8 8 8 9 7 9 11 12 12 13 12 11 12 13 14 15 14 14 13 13 13
2 3 2 1 1 1 1 1 1 1 2 2 2 2 2 3 3 4 6 6 7 7 8 9 7 7 9 11 12 12 12 12 11 11 12 13 14 15 16 15 13 13
1 1 0 0 0 0 0 1 1 1 2 2 2 2 2 2 3 4 4 4 5 7 8 10 8 7 9 10 12 12 12 9 9 11 12 12 13 13 13 12 12 13
2 2 1 1 1 2 2 2 2 2 2 2 2 2 3 3 3 4 4 4 4 5 8 9 9 9 9 10 12 12 10 7 7 8 10 11 12 11 11 12 12 12
3 2 2 2 2 2 2 2 2 2 2 2 2 3 4 3 3 4 4 4 5 5 7 7 8 8 8 9 11 12 11 7 7 9 10 11 11 11 10 12 13 14
4 2 2 2 2 2 2 2 2 2 2 2 3 3 4 4 4 4 4 4 4 5 8 8 8 9 11 12 12 12 10 7 8 9 10 11 10 11 11 11 12 11
2 2 2 2 3 3 3 3 3 3 2 3 3 3 4 3 4 4 5 6 4 5 5 6 7 7 6 12 12 12 12 8 7 9 11 11 10 11 11 10 11 10
Wind_Direction
221 221 221 213 216 219 217 213 215 218 220 219 223 220 216 217 209 211 216 219 223 225 223 229 243 238 229 220 212 214 211 212 208 195 208 211 214 211 216 216 214 220
220 224 226 227 225 219 226 222 225 224 228 223 227 227 220 213 212 212 218 222 223 226 228 233 241 239 230 218 216 220 224 214 213 192 209 214 218 217 223 220 220 220
216 218 222 226 223 223 220 222 228 232 234 236 230 225 227 213 222 216 221 223 228 228 225 227 240 237 231 226 220 220 225 221 224 210 215 218 221 221 226 224 226 224
218 219 220 221 221 223 220 226 223 229 238 243 235 228 221 218 220 223 221 221 229 228 226 225 240 240 234 226 221 223 222 226 221 211 223 228 224 225 230 227 231 230
211 210 212 212 215 219 224 235 238 239 243 246 247 234 224 222 220 224 221 220 221 228 227 232 239 243 240 229 217 224 221 224 221 214 221 228 224 221 229 222 225 231
209 208 208 211 211 210 216 222 221 221 223 225 231 228 227 222 225 224 223 222 222 225 226 233 238 242 243 234 222 221 221 223 217 214 223 228 230 224 225 223 226 228
207 206 212 212 215 217 227 227 222 221 228 232 235 236 232 231 229 231 231 229 228 226 225 227 228 239 240 238 229 223 221 224 218 214 223 231 228 232 226 222 227 231
210 208 206 210 217 225 231 234 237 236 235 240 241 250 250 249 245 237 234 233 234 232 230 228 231 234 241 239 236 230 225 221 222 217 225 231 227 234 228 222 222 230
206 208 205 213 216 225 229 230 231 233 235 244 248 253 249 244 248 249 248 239 236 236 234 234 231 233 232 238 239 233 228 228 223 219 223 227 228 232 231 226 226 229
208 208 206 211 218 225 229 230 228 232 239 247 249 251 249 247 247 250 248 247 244 239 234 235 234 231 231 229 239 241 238 235 227 225 227 230 231 233 230 226 227 230
210 204 207 213 220 225 228 230 232 230 234 246 248 248 249 251 246 245 248 247 247 248 242 235 236 236 235 234 230 238 242 241 238 231 226 230 231 232 230 228 229 230
208 203 211 215 217 226 228 227 228 228 229 240 251 252 253 247 246 246 244 246 248 249 251 248 241 235 236 236 233 229 238 247 246 242 237 232 232 233 231 230 232 234
205 206 207 212 219 228 227 230 235 233 230 234 240 246 249 248 245 245 244 247 249 250 251 253 249 242 241 239 237 234 238 248 248 247 246 244 241 238 236 235 236 237
201 204 206 219 227 231 237 237 235 230 229 233 231 247 247 248 249 246 249 249 253 254 257 254 247 250 244 241 240 245 249 249 249 249 245 241 245 246 241 240 239 238
174 174 210 227 222 229 229 229 227 229 227 230 236 244 246 248 250 251 253 254 256 256 259 259 256 246 240 240 243 244 249 252 252 251 253 255 252 246 245 242 242 240
129 167 207 210 212 219 227 222 226 230 230 234 234 235 240 249 251 252 253 256 260 260 258 258 257 258 237 235 243 255 259 257 257 256 257 258 258 256 252 245 239 240
184 199 191 214 216 228 228 225 226 221 229 234 235 232 235 239 246 252 255 259 260 262 262 259 255 256 244 239 240 241 248 258 260 262 260 257 257 256 257 258 255 250
191 145 239 235 228 230 222 223 222 220 226 225 230 235 235 232 241 247 251 254 258 259 258 255 255 244 243 246 242 242 238 248 256 259 257 259 258 258 259 259 260 258
317 245 234 232 227 221 217 209 214 226 232 226 232 237 247 243 246 245 246 245 247 256 258 256 256 248 248 251 250 246 243 241 252 254 257 257 255 256 260 261 263 262
210 211 215 214 205 210 209 208 210 226 235 242 242 241 245 251 249 248 249 245 246 253 261 262 258 253 249 254 254 250 247 243 251 254 257 258 258 259 259 256 256 258
196 203 208 198 206 205 208 219 224 257 260 259 244 240 240 243 245 246 243 243 250 252 261 267 259 250 251 255 257 253 250 246 254 254 256 259 259 260 260 259 256 259
358 314 289 278 307 318 317 308 296 276 280 284 267 259 250 252 258 253 255 249 248 252 260 268 266 249 246 251 257 257 251 251 252 254 255 256 256 256 253 254 252 250
0 347 340 341 346 339 329 316 305 292 286 282 270 261 257 249 247 247 246 245 241 242 253 264 271 264 254 250 252 254 254 254 253 255 257 255 255 255 255 253 250 246
357 353 342 339 337 323 313 316 309 298 283 275 275 281 273 262 266 267 252 241 239 238 242 262 270 274 269 260 252 251 249 255 256 262 263 261 265 256 252 259 252 240
355 353 344 333 321 316 322 310 305 303 303 297 278 275 270 274 264 267 265 262 245 243 251 254 267 275 272 267 261 258 254 255 260 267 268 265 267 271 266 266 266 252
354 348 334 329 318 314 324 321 316 311 306 304 294 285 286 286 286 283 277 276 270 266 254 248 261 268 266 265 261 256 251 257 264 266 267 269 267 270 275 270 268 267